RYR13LA EPKT-EDLW

Flight info

Callsign RYR13LA
Flight time 1h 16m
Altitude 36000
Route ADADO DCT UTEVO DCT RAPET T843 DEMAB T842 ADEMI ADEMI2A
Aircraft B738/M-SDE2E3FGHIRWXY/LB1

Departure

Time 2026-04-29 23:21
Airport Katowice Wojciech Korfanty International Airport (EPKT)

Arrival

Time 2026-04-30 00:37
Airport Dortmund Airport (EDLW)
Time Latitude Longitude Altitude Speed Heading
2026-04-29 22:53 50.47152 19.07091 982 ft 0 kts 180°
2026-04-29 23:13 50.47163 19.07091 982 ft 2 kts 180°
2026-04-29 23:13 50.47178 19.07091 981 ft 2 kts 180°
2026-04-29 23:13 50.47192 19.07091 981 ft 0 kts 180°
2026-04-29 23:13 50.47203 19.07091 981 ft 2 kts 168°
2026-04-29 23:14 50.47217 19.07082 981 ft 2 kts 147°
2026-04-29 23:14 50.47228 19.07066 980 ft 2 kts 127°
2026-04-29 23:14 50.47236 19.07045 979 ft 2 kts 107°
2026-04-29 23:14 50.47238 19.07027 979 ft 0 kts 92°
2026-04-29 23:15 50.47238 19.07016 979 ft 0 kts 89°
2026-04-29 23:17 50.47239 19.07079 980 ft 9 kts 86°
2026-04-29 23:17 50.47240 19.07168 982 ft 8 kts 90°
2026-04-29 23:18 50.47237 19.07351 982 ft 19 kts 91°
2026-04-29 23:18 50.47236 19.07573 983 ft 24 kts 90°
2026-04-29 23:18 50.47237 19.07910 983 ft 35 kts 90°
2026-04-29 23:18 50.47234 19.08251 985 ft 28 kts 90°
2026-04-29 23:19 50.47238 19.08545 985 ft 26 kts 90°
2026-04-29 23:19 50.47234 19.08817 989 ft 23 kts 89°
2026-04-29 23:19 50.47235 19.09054 993 ft 19 kts 91°
2026-04-29 23:19 50.47234 19.09261 994 ft 18 kts 89°
2026-04-29 23:20 50.47286 19.09408 996 ft 18 kts
2026-04-29 23:20 50.47445 19.09409 990 ft 24 kts
2026-04-29 23:20 50.47597 19.09418 988 ft 11 kts 307°
2026-04-29 23:20 50.47600 19.09403 988 ft 0 kts 269°
2026-04-29 23:21 50.47603 19.09049 984 ft 72 kts 269°
2026-04-29 23:21 50.47607 19.07872 978 ft 141 kts 270°
2026-04-29 23:21 50.47597 19.06108 1391 ft 166 kts 272°
2026-04-29 23:21 50.47606 19.04299 2069 ft 178 kts 274°
2026-04-29 23:22 50.47628 19.02268 2681 ft 192 kts 274°
2026-04-29 23:22 50.47643 19.00155 3196 ft 202 kts 272°
2026-04-29 23:22 50.47568 18.97901 3670 ft 215 kts 264°
2026-04-29 23:22 50.47193 18.95442 3829 ft 246 kts 252°
2026-04-29 23:23 50.46545 18.92934 4518 ft 250 kts 249°
2026-04-29 23:23 50.45901 18.90363 5185 ft 257 kts 252°
2026-04-29 23:23 50.45278 18.87689 5738 ft 269 kts 253°
2026-04-29 23:23 50.44660 18.84878 6261 ft 282 kts 255°
2026-04-29 23:24 50.44036 18.81946 6929 ft 289 kts 255°
2026-04-29 23:24 50.43402 18.78929 7702 ft 291 kts 255°
2026-04-29 23:24 50.42773 18.75934 8429 ft 295 kts 255°
2026-04-29 23:24 50.42128 18.72868 9184 ft 298 kts 255°
2026-04-29 23:25 50.41476 18.69775 9881 ft 302 kts 256°
2026-04-29 23:25 50.40818 18.66663 10575 ft 305 kts 255°
2026-04-29 23:25 50.40140 18.63454 11021 ft 319 kts 256°
2026-04-29 23:25 50.39431 18.60093 11395 ft 333 kts 255°
2026-04-29 23:26 50.38684 18.56572 11750 ft 348 kts 255°
2026-04-29 23:26 50.37906 18.52917 12215 ft 359 kts 255°
2026-04-29 23:26 50.37112 18.49205 12839 ft 364 kts 255°
2026-04-29 23:26 50.36308 18.45456 13553 ft 366 kts 255°
2026-04-29 23:27 50.35487 18.41635 14186 ft 370 kts 255°
2026-04-29 23:27 50.34665 18.37818 14855 ft 373 kts 255°
2026-04-29 23:27 50.33834 18.33958 15435 ft 378 kts 254°
2026-04-29 23:27 50.32992 18.30043 16020 ft 382 kts 254°
2026-04-29 23:28 50.32146 18.26117 16600 ft 386 kts 254°
2026-04-29 23:28 50.31279 18.22106 17217 ft 389 kts 254°
2026-04-29 23:28 50.30407 18.18083 17719 ft 394 kts 254°
2026-04-29 23:28 50.29527 18.14029 18256 ft 398 kts 254°
2026-04-29 23:29 50.28636 18.09934 18831 ft 401 kts 254°
2026-04-29 23:29 50.27739 18.05818 19306 ft 406 kts 254°
2026-04-29 23:29 50.26821 18.01611 19781 ft 410 kts 255°
2026-04-29 23:29 50.25906 17.97430 20333 ft 412 kts 255°
2026-04-29 23:30 50.24973 17.93180 20792 ft 417 kts 255°
2026-04-29 23:30 50.24030 17.88884 21292 ft 420 kts 255°
2026-04-29 23:30 50.23073 17.84540 21825 ft 422 kts 255°
2026-04-29 23:30 50.22144 17.80205 22223 ft 426 kts 257°
2026-04-29 23:31 50.21412 17.75714 22670 ft 427 kts 264°
2026-04-29 23:31 50.21003 17.71157 23115 ft 426 kts 270°
2026-04-29 23:31 50.20843 17.66508 23587 ft 426 kts 275°
2026-04-29 23:31 50.20813 17.61892 24015 ft 428 kts 277°
2026-04-29 23:32 50.20835 17.57247 24378 ft 432 kts 277°
2026-04-29 23:32 50.20871 17.52596 24757 ft 436 kts 277°
2026-04-29 23:32 50.20922 17.47850 25155 ft 438 kts 278°
2026-04-29 23:32 50.21008 17.43102 25515 ft 442 kts 279°
2026-04-29 23:33 50.21112 17.38308 25921 ft 444 kts 279°
2026-04-29 23:33 50.21218 17.33489 26317 ft 447 kts 278°
2026-04-29 23:33 50.21322 17.28600 26622 ft 452 kts 278°
2026-04-29 23:33 50.21420 17.23650 26991 ft 455 kts 278°
2026-04-29 23:34 50.21510 17.18702 27372 ft 457 kts 278°
2026-04-29 23:34 50.21594 17.13743 27661 ft 462 kts 278°
2026-04-29 23:34 50.21674 17.08730 28028 ft 464 kts 278°
2026-04-29 23:34 50.21749 17.03730 28364 ft 467 kts 278°
2026-04-29 23:35 50.21825 16.98578 28598 ft 472 kts 278°
2026-04-29 23:35 50.21896 16.93476 28972 ft 474 kts 278°
2026-04-29 23:35 50.21967 16.88295 29230 ft 478 kts 278°
2026-04-29 23:35 50.22035 16.83115 29575 ft 480 kts 278°
2026-04-29 23:36 50.22102 16.77842 29828 ft 485 kts 278°
2026-04-29 23:36 50.22166 16.72533 30164 ft 486 kts 278°
2026-04-29 23:36 50.22226 16.67270 30496 ft 488 kts 278°
2026-04-29 23:36 50.22285 16.61899 30847 ft 489 kts 278°
2026-04-29 23:37 50.22338 16.56624 31322 ft 486 kts 278°
2026-04-29 23:37 50.22387 16.51380 31795 ft 482 kts 278°
2026-04-29 23:37 50.22432 16.46156 32189 ft 479 kts 278°
2026-04-29 23:37 50.22475 16.40981 32521 ft 479 kts 278°
2026-04-29 23:38 50.22517 16.35809 32915 ft 476 kts 277°
2026-04-29 23:38 50.22558 16.30613 33309 ft 472 kts 277°
2026-04-29 23:38 50.22597 16.25543 33657 ft 470 kts 276°
2026-04-29 23:38 50.22637 16.20404 33864 ft 471 kts 277°
2026-04-29 23:39 50.22676 16.15332 34120 ft 471 kts 277°
2026-04-29 23:39 50.22710 16.10276 34426 ft 469 kts 277°
2026-04-29 23:39 50.22741 16.05158 34689 ft 469 kts 277°
2026-04-29 23:39 50.22768 16.00099 35075 ft 465 kts 276°
2026-04-29 23:40 50.22791 15.95028 35502 ft 459 kts 276°
2026-04-29 23:40 50.22812 15.90069 35870 ft 457 kts 276°
2026-04-29 23:40 50.22832 15.85144 36112 ft 456 kts 277°
2026-04-29 23:40 50.22853 15.80210 36362 ft 455 kts 276°
2026-04-29 23:41 50.22891 15.70297 36463 ft 456 kts 276°
2026-04-29 23:41 50.22916 15.60461 36475 ft 454 kts 277°
2026-04-29 23:42 50.22931 15.50557 36445 ft 456 kts 277°
2026-04-29 23:42 50.22940 15.40752 36467 ft 452 kts 277°
2026-04-29 23:43 50.22941 15.30915 36485 ft 455 kts 276°
2026-04-29 23:43 50.22935 15.21019 36459 ft 457 kts 276°
2026-04-29 23:44 50.22914 15.11096 36477 ft 455 kts 276°
2026-04-29 23:44 50.22887 15.01221 36468 ft 456 kts 276°
2026-04-29 23:45 50.22853 14.91330 36471 ft 456 kts 276°
2026-04-29 23:45 50.22812 14.81464 36468 ft 455 kts 276°
2026-04-29 23:46 50.22759 14.71612 36461 ft 457 kts 276°
2026-04-29 23:46 50.22695 14.61632 36462 ft 455 kts 276°
2026-04-29 23:47 50.22631 14.51779 36466 ft 458 kts 276°
2026-04-29 23:47 50.22557 14.41839 36474 ft 458 kts 276°
2026-04-29 23:48 50.22470 14.31988 36481 ft 455 kts 275°
2026-04-29 23:48 50.22378 14.22068 36472 ft 455 kts 275°
2026-04-29 23:49 50.22280 14.12174 36464 ft 457 kts 275°
2026-04-29 23:49 50.22170 14.02264 36462 ft 456 kts 275°
2026-04-29 23:50 50.22052 13.92414 36445 ft 457 kts 275°
2026-04-29 23:51 50.21860 13.77577 36086 ft 455 kts 275°
2026-04-29 23:51 50.21790 13.72654 36332 ft 450 kts 275°
2026-04-29 23:51 50.21719 13.67725 36419 ft 453 kts 275°
2026-04-29 23:52 50.21576 13.57817 36441 ft 460 kts 275°
2026-04-29 23:52 50.21423 13.47858 36449 ft 459 kts 275°
2026-04-29 23:53 50.21252 13.37921 36443 ft 458 kts 275°
2026-04-29 23:53 50.21079 13.28019 36445 ft 460 kts 274°
2026-04-29 23:54 50.20898 13.18054 36423 ft 459 kts 274°
2026-04-29 23:54 50.20706 13.08081 36436 ft 461 kts 274°
2026-04-29 23:55 50.20507 12.98160 36453 ft 461 kts 274°
2026-04-29 23:55 50.20298 12.88142 36429 ft 462 kts 274°
2026-04-29 23:56 50.20078 12.78174 36428 ft 461 kts 274°
2026-04-29 23:56 50.19854 12.68191 36424 ft 464 kts 274°
2026-04-29 23:57 50.19618 12.58172 36419 ft 463 kts 274°
2026-04-29 23:57 50.19373 12.48167 36437 ft 462 kts 274°
2026-04-29 23:58 50.19198 12.38142 36407 ft 460 kts 278°
2026-04-29 23:58 50.19886 12.28350 36425 ft 452 kts 287°
2026-04-29 23:59 50.21258 12.18784 36420 ft 450 kts 290°
2026-04-29 23:59 50.22771 12.09409 36408 ft 450 kts 291°
2026-04-30 00:00 50.24300 11.99956 36416 ft 451 kts 291°
2026-04-30 00:00 50.25808 11.90469 36410 ft 451 kts 291°
2026-04-30 00:01 50.27290 11.80992 36402 ft 449 kts 290°
2026-04-30 00:01 50.28758 11.71516 36413 ft 450 kts 290°
2026-04-30 00:02 50.30218 11.62008 36401 ft 449 kts 290°
2026-04-30 00:02 50.31668 11.52426 36400 ft 451 kts 290°
2026-04-30 00:03 50.33083 11.42914 36402 ft 450 kts 290°
2026-04-30 00:03 50.34494 11.33323 36411 ft 453 kts 289°
2026-04-30 00:04 50.35908 11.23680 36412 ft 452 kts 289°
2026-04-30 00:04 50.37302 11.14101 36412 ft 451 kts 289°
2026-04-30 00:05 50.38695 11.04526 36395 ft 453 kts 289°
2026-04-30 00:05 50.40068 10.95036 36411 ft 453 kts 289°
2026-04-30 00:06 50.41443 10.85456 36412 ft 454 kts 289°
2026-04-30 00:06 50.42821 10.75781 36406 ft 453 kts 289°
2026-04-30 00:07 50.44184 10.66202 36401 ft 454 kts 290°
2026-04-30 00:07 50.45587 10.56468 36392 ft 456 kts 290°
2026-04-30 00:08 50.46944 10.47039 36388 ft 456 kts 289°
2026-04-30 00:08 50.48311 10.37389 36386 ft 455 kts 289°
2026-04-30 00:09 50.49592 10.28225 36386 ft 457 kts 289°
2026-04-30 00:09 50.50950 10.18447 36383 ft 459 kts 289°
2026-04-30 00:10 50.52337 10.08745 36374 ft 454 kts 292°
2026-04-30 00:10 50.54931 9.99962 36369 ft 433 kts 314°
2026-04-30 00:11 50.56328 9.97352 36371 ft 426 kts 321°
2026-04-30 00:11 50.60814 9.91509 36375 ft 411 kts 336°
2026-04-30 00:12 50.63655 9.89220 36381 ft 404 kts 343°
2026-04-30 00:12 50.67115 9.86986 36393 ft 399 kts 346°
2026-04-30 00:12 50.71027 9.84651 36262 ft 394 kts 347°
2026-04-30 00:13 50.73587 9.83124 35838 ft 392 kts 347°
2026-04-30 00:13 50.76125 9.81593 35350 ft 392 kts 347°
2026-04-30 00:13 50.78646 9.80050 34884 ft 390 kts 347°
2026-04-30 00:13 50.81174 9.78483 34356 ft 388 kts 347°
2026-04-30 00:14 50.83675 9.76915 33887 ft 384 kts 347°
2026-04-30 00:14 50.86114 9.75373 33440 ft 380 kts 347°
2026-04-30 00:14 50.88552 9.73777 32977 ft 378 kts 345°
2026-04-30 00:14 50.90883 9.71905 32519 ft 382 kts 337°
2026-04-30 00:15 50.92989 9.69259 32057 ft 393 kts 324°
2026-04-30 00:15 50.94743 9.65886 31582 ft 402 kts 313°
2026-04-30 00:15 50.96175 9.62023 31080 ft 407 kts 306°
2026-04-30 00:15 50.97310 9.57893 30581 ft 413 kts 297°
2026-04-30 00:16 50.98102 9.53542 30075 ft 416 kts 291°
2026-04-30 00:16 50.98700 9.49017 29552 ft 417 kts 288°
2026-04-30 00:16 50.99202 9.44525 29046 ft 415 kts 287°
2026-04-30 00:16 50.99673 9.40046 28544 ft 413 kts 287°
2026-04-30 00:17 51.00148 9.35549 28037 ft 410 kts 287°
2026-04-30 00:17 51.00622 9.31177 27548 ft 407 kts 286°
2026-04-30 00:17 51.01119 9.26746 27049 ft 403 kts 286°
2026-04-30 00:17 51.01614 9.22429 26561 ft 400 kts 287°
2026-04-30 00:18 51.02119 9.18074 26065 ft 397 kts 287°
2026-04-30 00:18 51.02620 9.13795 25579 ft 394 kts 287°
2026-04-30 00:18 51.03119 9.09542 25087 ft 391 kts 287°
2026-04-30 00:18 51.03616 9.05313 24612 ft 389 kts 287°
2026-04-30 00:19 51.04110 9.01139 24136 ft 385 kts 288°
2026-04-30 00:19 51.04763 8.97052 23657 ft 378 kts 295°
2026-04-30 00:19 51.05724 8.93218 23198 ft 369 kts 302°
2026-04-30 00:19 51.06877 8.89626 22748 ft 363 kts 305°
2026-04-30 00:20 51.08117 8.86125 22299 ft 359 kts 307°
2026-04-30 00:20 51.09372 8.82689 21851 ft 357 kts 307°
2026-04-30 00:20 51.10612 8.79302 21409 ft 354 kts 307°
2026-04-30 00:20 51.11832 8.75949 20966 ft 352 kts 307°
2026-04-30 00:21 51.13047 8.72582 20521 ft 351 kts 307°
2026-04-30 00:21 51.14183 8.69412 20105 ft 349 kts 306°
2026-04-30 00:21 51.15373 8.66081 19665 ft 348 kts 306°
2026-04-30 00:21 51.16566 8.62724 19221 ft 346 kts 306°
2026-04-30 00:22 51.17752 8.59378 18782 ft 345 kts 306°
2026-04-30 00:22 51.18926 8.56063 18348 ft 343 kts 306°
2026-04-30 00:22 51.20148 8.52875 17918 ft 339 kts 311°
2026-04-30 00:22 51.21555 8.49854 17486 ft 334 kts 316°
2026-04-30 00:23 51.23036 8.47045 17075 ft 331 kts 318°
2026-04-30 00:23 51.24532 8.44332 16656 ft 329 kts 318°
2026-04-30 00:23 51.26015 8.41555 16218 ft 330 kts 315°
2026-04-30 00:23 51.27382 8.38578 15792 ft 331 kts 311°
2026-04-30 00:24 51.28663 8.35535 15377 ft 330 kts 310°
2026-04-30 00:24 51.29917 8.32480 14965 ft 328 kts 309°
2026-04-30 00:24 51.31162 8.29459 14555 ft 326 kts 309°
2026-04-30 00:24 51.32423 8.26438 14150 ft 324 kts 309°
2026-04-30 00:25 51.33467 8.23246 13706 ft 331 kts 292°
2026-04-30 00:25 51.33853 8.19592 13235 ft 337 kts 277°
2026-04-30 00:25 51.33931 8.15844 12766 ft 336 kts 274°
2026-04-30 00:25 51.33956 8.12101 12290 ft 335 kts 273°
2026-04-30 00:26 51.33978 8.08431 11807 ft 333 kts 273°
2026-04-30 00:26 51.33976 8.04750 11309 ft 333 kts 270°
2026-04-30 00:26 51.33769 8.01053 10806 ft 332 kts 265°
2026-04-30 00:26 51.33461 7.97396 10301 ft 331 kts 263°
2026-04-30 00:27 51.33142 7.93801 9796 ft 328 kts 263°
2026-04-30 00:27 51.32825 7.90201 9287 ft 324 kts 263°
2026-04-30 00:27 51.32524 7.86665 8787 ft 319 kts 263°
2026-04-30 00:27 51.32233 7.83160 8283 ft 315 kts 263°
2026-04-30 00:28 51.31954 7.79721 7775 ft 312 kts 263°
2026-04-30 00:28 51.31681 7.76288 7273 ft 309 kts 263°
2026-04-30 00:28 51.31424 7.72903 6759 ft 306 kts 263°
2026-04-30 00:28 51.31179 7.69575 6255 ft 303 kts 263°
2026-04-30 00:29 51.30950 7.66243 5752 ft 301 kts 265°
2026-04-30 00:29 51.31110 7.62900 5216 ft 300 kts 286°
2026-04-30 00:29 51.31765 7.59798 4710 ft 298 kts 292°
2026-04-30 00:29 51.32534 7.56709 4191 ft 296 kts 293°
2026-04-30 00:30 51.33307 7.53697 3684 ft 295 kts 294°
2026-04-30 00:30 51.34079 7.50744 3254 ft 275 kts 293°
2026-04-30 00:30 51.34895 7.48170 3002 ft 245 kts 307°
2026-04-30 00:30 51.35918 7.46153 2974 ft 226 kts 314°
2026-04-30 00:31 51.36938 7.44231 2971 ft 219 kts 314°
2026-04-30 00:31 51.37890 7.42425 2970 ft 214 kts 314°
2026-04-30 00:31 51.38862 7.40580 2972 ft 214 kts 314°
2026-04-30 00:31 51.39814 7.38770 2969 ft 212 kts 314°
2026-04-30 00:32 51.40918 7.37354 2963 ft 194 kts 345°
2026-04-30 00:32 51.42204 7.36817 2987 ft 191 kts 357°
2026-04-30 00:32 51.43497 7.36326 2963 ft 189 kts 355°
2026-04-30 00:32 51.44491 7.36929 3009 ft 153 kts 73°
2026-04-30 00:33 51.44727 7.38555 3009 ft 148 kts 91°
2026-04-30 00:33 51.44711 7.40194 2980 ft 146 kts 90°
2026-04-30 00:33 51.45007 7.41732 2992 ft 144 kts 71°
2026-04-30 00:33 51.45439 7.43071 2946 ft 124 kts 71°
2026-04-30 00:34 51.45847 7.44312 2825 ft 124 kts 70°
2026-04-30 00:34 51.46263 7.45484 2641 ft 123 kts 69°
2026-04-30 00:34 51.46688 7.46696 2482 ft 124 kts 70°
2026-04-30 00:34 51.47109 7.47896 2285 ft 124 kts 68°
2026-04-30 00:35 51.47545 7.49106 2119 ft 125 kts 69°
2026-04-30 00:35 51.47968 7.50304 1946 ft 126 kts 68°
2026-04-30 00:35 51.48399 7.51517 1775 ft 125 kts 68°
2026-04-30 00:35 51.48828 7.52739 1604 ft 125 kts 69°
2026-04-30 00:36 51.49262 7.53963 1417 ft 126 kts 66°
2026-04-30 00:36 51.49707 7.55205 1244 ft 129 kts 66°
2026-04-30 00:36 51.50143 7.56459 1053 ft 135 kts 64°
2026-04-30 00:36 51.50612 7.57759 866 ft 131 kts 63°
2026-04-30 00:37 51.51075 7.59053 694 ft 136 kts 62°
2026-04-30 00:37 51.51547 7.60395 494 ft 139 kts 61°
2026-04-30 00:37 51.51989 7.61649 426 ft 104 kts 60°
2026-04-30 00:37 51.52186 7.62214 425 ft 21 kts 66°
2026-04-30 00:38 51.52114 7.62369 425 ft 19 kts 153°
2026-04-30 00:38 51.52016 7.62294 425 ft 17 kts 239°
2026-04-30 00:38 51.51958 7.62130 425 ft 16 kts 239°
2026-04-30 00:38 51.51903 7.61974 425 ft 15 kts 240°
2026-04-30 00:39 51.51852 7.61828 425 ft 14 kts 242°
2026-04-30 00:39 51.51806 7.61692 425 ft 13 kts 241°
2026-04-30 00:39 51.51751 7.61540 425 ft 17 kts 240°
2026-04-30 00:39 51.51693 7.61377 425 ft 16 kts 242°
2026-04-30 00:40 51.51642 7.61229 425 ft 14 kts 239°
2026-04-30 00:40 51.51632 7.61204 425 ft 0 kts 240°
2026-04-30 00:42 51.51637 7.61222 425 ft 2 kts 264°
2026-04-30 00:42 51.51636 7.61246 425 ft 2 kts 288°
2026-04-30 00:43 51.51629 7.61267 425 ft 2 kts 314°
2026-04-30 00:43 51.51616 7.61281 425 ft 2 kts 336°
2026-04-30 00:43 51.51603 7.61292 425 ft 2 kts 329°
2026-04-30 00:43 51.51590 7.61304 425 ft 2 kts 332°
2026-04-30 00:44 51.51586 7.61308 425 ft 0 kts 332°